星链-5156 (STARLINK-5156 )

导读 | 豆包AI

STARLINK-5156是美国太空探索技术公司(SpaceX)星链计划中的一颗卫星,于2022年10月5日发射入轨,属于星链星座组网卫星,旨在为全球提供高速低延迟的卫星互联网服务,补充完善星链低轨卫星星座的网络覆盖,进一步推动全球卫星互联网的部署进程。

基本信息
目录编号:
53973
目录名称:
STARLINK-5156
国际标识:
2022-125K
轨道中心:
EARTH
卫星名称:
星链-5156
卫星全名:
星链-5156 (STARLINK-5156 )
卫星状态:
在轨 (已飞行1257 天)
发射日期:
2022-10-05 UTC
国别 :
美国 (US)
星等 :
--
轨道信息
数据来源 国际轨道数据 AOE轨道数据
星历时间 2026-03-15T02:56:04+0800
14小时前
查看轨道信息
2026-03-14T09:00:00+0800
1天前
查看轨道信息
半长轴 6917.861km 6917.843km
偏心率 0.0001063 0.0001292
轨道倾角 53.217° 53.217°
近地点辐角 85.601° 100.811°
升交点赤经 201.108° 204.466°
平近点角 274.510° 158.090°
近地点 538.988km 538.812km
远地点 540.46km 540.6km
周期 95.437分钟 95.437分钟
每日圈数 15.088464 15.088523
详细信息
固有亮度:
5
最大亮度:
2.5
卫星平台:
Starlink v1.5
覆盖范围:
全球
运营商:
太空探索技术公司
运营商所在国:
美国
制造商(研发单位):
太空探索技术公司
制造商所在国:
美国
使用方式:
暂无
卫星简介
星链(Starlink)计划是由太空探索技术公司(SpaceX)提出的一个巨型低轨卫星互联网星座项目,计划在2019年至2024年间在太空搭建由约1.2万颗卫星组成的“星链”网络,其中1584颗将部署在地球上空550千米处的近地轨道,并从2020年开始工作。该卫星仍在工作。
2D轨道图
3D轨道图
轨道高度分析图
轨道倾角分析图
轨道综合分析图
查看轨道综合分析图